User: anonymous   Login
Location: Fauquembergues
(50.6005°N, 2.0987°E)
Time: 02:42:44
(UTC+00:00)
Language:

Cosmos 1818 - Orbit

View from above orbital plane
View from above orbital plane
View from above satellite
View from above satellite

Ground track
Ground track

The orbit data is extracted from the following two-line orbital elements,

1 17369U 87011A   20266.45727036 -.00000101 +00000-0 -21456-6 0  9991
2 17369 065.0109 351.8218 0014615 284.1531 075.7929 14.31458201809148
Epoch (UTC): 22 September 2020 10:58:28
Eccentricity: 0.0014615
inclination: 65.0109°
perigee height: 776 km
apogee height: 797 km
right ascension of ascending node: 351.8218°
argument of perigee: 284.1531°
revolutions per day: 14.31458201
mean anomaly at epoch: 75.7929°
orbit number at epoch: 80914

The dashed part of the orbit path shows where the satellite is in the earth's shadow,  

DLR